sat.trackr.live / text

‹ back to catalog

GPS BIIF-8 (PRN 03)

NORAD 40294 · 2014-068A

PAYLOAD ACTIVE UNKNOWN

§ Identity

Operator
Country
US
Launch date
2014-10-29
Launch site
AFETR
Launch vehicle
Mass (kg)
RCS (m²)
15.79

Purposes: earth_obs, nav

External: N2YO · Heavens-Above · Gunter

§ Orbital elements

Epoch: 2026-05-24T23:45:25.353792Z

Period
717.94 min
Inclination
56.9722°
Eccentricity
0.0066401
Mean motion
2.00574806 rev/d
Perigee alt
20,004.9 km
Apogee alt
20,357.6 km
Semi-major
26,559.4 km
B*
0.0000e+0
RAAN
31.8484°
Arg perigee
69.7589°
Mean anomaly
290.9872°
Rev number
8,474

§ Raw data

GPS BIIF-8  (PRN 03)1 40294U 14068A   26144.98987678 -.00000106  00000+0  00000+0 0  99932 40294  56.9722  31.8484 0066401  69.7589 290.9872  2.00574806 84743

JSON: /api/v1/satellites/40294 · /tle

For live sub-satellite position, see the globe view (requires WebGL).

§ Visibility from observer

Set your observer location to see the next 7 days of passes ≥ 10°. The values pass through the URL so the page stays shareable.

No JS? Fill the form by hand. The geolocation button needs JavaScript.